Location: Newark
(33.6439°N, 114.9881°W)
Time: 03:44:53
(UTC+00:00)

Tiangong 2 - Visible Passes

Search period start: 16 June 2019 00:00
Search period end: 26 June 2019 00:00
Orbit: 376 x 388 km, 42.8° (Epoch: 15 June)

Date Brightness Start Highest point End Pass type
(mag) Time Alt. Az. Time Alt. Az. Time Alt. Az.
22 Jun 2.1 11:40:25 12° SSW 11:42:58 37° SE 11:45:56 10° ENE visible
23 Jun 3.1 10:42:58 18° SE 10:42:58 18° SE 10:45:10 10° E visible
24 Jun 1.0 11:17:36 27° SW 11:19:09 77° SSE 11:22:18 10° ENE visible
25 Jun 2.8 10:20:02 27° ESE 10:20:02 27° ESE 10:21:55 10° ENE visible
25 Jun 2.5 11:52:49 10° W 11:55:42 32° NNW 11:58:35 10° NE visible
